[Date Prev][Date Next][Thread Prev][Thread Next] - [Date Index][Thread Index][Author Index]
2 Line ISS Keps 12-8
- Subject: [sarex] 2 Line ISS Keps 12-8
- From: "Dave Larsen Ph.D." <doc@xxxxxxxxxxx>
- Date: Sun, 8 Dec 2002 03:53:50 -0800
ISS
1 25544U 98067A 02342.15115100 .00033043 00000-0 45253-3 0 4502
2 25544 51.6374 259.5841 0003405 239.7619 261.4642 15.57074342231101
----
Via the sarex mailing list at AMSAT.ORG courtesy of AMSAT-NA.
To unsubscribe, send "unsubscribe sarex" to Majordomo@amsat.org
AMSAT Home